sat.trackr.live / text

‹ back to catalog

O3B MPOWER F8

NORAD 62363 · 2024-244B

PAYLOAD ACTIVE UNKNOWN

§ Identity

Operator
Country
O3B
Launch date
2024-12-17
Launch site
AFETR
Launch vehicle
Mass (kg)
RCS (m²)

Purposes: comms

External: N2YO · Heavens-Above · Gunter

§ Orbital elements

Epoch: 2026-09-19T18:58:43.163904Z

Period
287.93 min
Inclination
0.0340°
Eccentricity
0.0005195
Mean motion
5.00114761 rev/d
Perigee alt
8,058.4 km
Apogee alt
8,073.4 km
Semi-major
14,444.0 km
B*
0.0000e+0
RAAN
37.2304°
Arg perigee
131.5428°
Mean anomaly
191.2405°
Rev number
2,560

§ Raw data

O3B MPOWER F81 62363U 24244B   26262.79077736 -.00000027  00000+0  00000+0 0  99982 62363   0.0340  37.2304 0005195 131.5428 191.2405  5.00114761 25602

JSON: /api/v1/satellites/62363 · /tle

For live sub-satellite position, see the globe view (requires WebGL).

§ Visibility from observer

Set your observer location to see the next 7 days of passes ≥ 10°. The values pass through the URL so the page stays shareable.

No JS? Fill the form by hand. The geolocation button needs JavaScript.